User: anonymous
Location: Unspecified
(0.0000°N, 0.0000°E)
Time: 23:01:52
(UTC+02:00)
Language:

Meteor 2-8 Rocket - Orbit

View from above orbital plane
View from above orbital plane
View from above satellite
View from above satellite

Ground track
Ground track

The orbit data is extracted from the following two-line orbital elements,

1 13114U 82025B   14244.31060648  .00000037  00000-0  19306-4 0  4808
2 13114 082.5388 294.2789 0015778 132.5343 274.6146 13.84628077639279
Epoch (UTC): 01 September 2014 07:27:16
Eccentricity: 0.0015778
inclination: 82.5388°
perigee height: 936 km
apogee height: 959 km
right ascension of ascending node: 294.2789°
argument of perigee: 132.5343°
revolutions per day: 13.84628077
mean anomaly at epoch: 274.6146°
orbit number at epoch: 63927

The dashed part of the orbit path shows where the satellite is in the earth's shadow,  

DLR